Location: Unspecified
(48.5670°N, 0.0000°E)
Time: 08:23:32
(UTC+00:00)

Vanguard 2 Rocket - Pass Details

Date: 28 August 2019
Orbit: 554 x 3327 km, 32.9° (Epoch: 19 September)

Event Time Altitude Azimuth Distance (km) Brightness Sun altitude
Rises 06:50:28 0° 269° (W) 5,954 10.4 15.4°
Reaches altitude 10° 06:54:40 10° 260° (W) 5,301 10.3 16.1°
Maximum altitude 07:08:03 31° 207° (SSW) 4,567 10.4 18.3°
Drops below altitude 10° 07:23:55 10° 156° (SSE) 6,242 11.7 20.9°
Sets 07:29:32 0° 147° (SSE) 7,126 12.1 21.8°
